This is the latest recevied weather packets stored in our database for station/object DG1GMY-13. If no packets are shown the sender has not sent any weather packets the latest 10 day(s).
| Time | Temp. | Humidity | Pressure | Rain* | Wind** | Luminosity | Snow |
|---|---|---|---|---|---|---|---|
| 1777662163 | 17.78° C | 33% | 1022.8 hPa | - | - | - | - |
| 1777660357 | 20° C | 31% | 1022.5 hPa | - | - | - | - |
| 1777658551 | 22.22° C | 23% | 1022.3 hPa | - | - | - | - |
| 1777656745 | 22.78° C | 23% | 1022.2 hPa | - | - | - | - |
| 1777654939 | 23.33° C | 22% | 1022.1 hPa | - | - | - | - |
| 1777653133 | 23.89° C | 21% | 1022.2 hPa | - | - | - | - |
| 1777651328 | 23.89° C | 20% | 1022.3 hPa | - | - | - | - |
| 1777649521 | 24.44° C | 23% | 1022.6 hPa | - | - | - | - |
| 1777645910 | 23.89° C | 23% | 1023.1 hPa | - | - | - | - |
| 1777644104 | 23.33° C | 22% | 1023.5 hPa | - | - | - | - |
| 1777642298 | 23.33° C | 23% | 1023.8 hPa | - | - | - | - |
| 1777640492 | 22.22° C | 24% | 1024.2 hPa | - | - | - | - |
| 1777638686 | 22.22° C | 25% | 1024.5 hPa | - | - | - | - |
| 1777636880 | 21.11° C | 24% | 1024.8 hPa | - | - | - | - |
| 1777635074 | 20° C | 25% | 1025.2 hPa | - | - | - | - |
| 1777633268 | 22.22° C | 26% | 1025.7 hPa | - | - | - | - |
| 1777631462 | 20° C | 28% | 1026.1 hPa | - | - | - | - |
| 1777629656 | 18.89° C | 31% | 1026.4 hPa | - | - | - | - |
| 1777627850 | 16.67° C | 30% | 1026.5 hPa | - | - | - | - |
| 1777626044 | 16.11° C | 35% | 1026.6 hPa | - | - | - | - |
| 1777624238 | 15° C | 38% | 1026.5 hPa | - | - | - | - |
| 1777622432 | 13.33° C | 41% | 1026.6 hPa | - | - | - | - |
| 1777620626 | 12.22° C | 44% | 1026.6 hPa | - | - | - | - |
| 1777618821 | 11.67° C | 48% | 1026.5 hPa | - | - | - | - |
| 1777617014 | 10° C | 48% | 1026.6 hPa | - | - | - | - |
* Rain since midnight (hover to see other rain measurements)
** Current wind speed in m/s (hover to see current wind gust speed)